Regional Weather Roundup
Issued by NWS Upton, NY

Current Version | Previous Version | Graphics & Text | Print | Product List | Glossary Off
Versions: 1 2 3 4 5 6 7 8 9 10 11 12 13 14 15 16 17 18 19 20 21 22 23 24 25 26 27 28 29 30 31 32 33 34 35 36 37 38 39 40 41 42 43 44 45 46 47 48 49 50

000
ASUS41 KOKX 291609
RWROKX

REGIONAL WEATHER ROUNDUP
NATIONAL WEATHER SERVICE NEW YORK NY
1200 PM EDT MON MAY 29 2017

NOTE: "FAIR" INDICATES FEW OR NO CLOUDS BELOW 12,000 FEET WITH NO
SIGNIFICANT WEATHER AND/OR OBSTRUCTIONS TO VISIBILITY.

NYZ071-072-176-178-NJZ106-104-291700-
NEW YORK CITY METRO AREA

CITY           SKY/WX    TMP DP  RH WIND       PRES   REMARKS
Central Park   LGT RAIN  57  54  89 VRB3      29.98R FOG
Wall St Helipt CLOUDY    59  55  87 VRB7      29.96R
Bronx Bot Gard   N/A     54  52  94 W1        29.95F
LaGuardia APRT LGT RAIN  57  53  86 NE14      29.95R FOG
Kennedy INTL   LGT RAIN  59  53  80 E8        29.95R
Breezy Point     N/A     55 N/A N/A E12G17      N/A
Newark/Liberty LGT RAIN  59  54  83 E8        29.95R
Teterboro      DRIZZLE   57  54  89 NE6       29.95R
$$

NYZ177-179-078>081-291700-
LONG ISLAND NEW YORK

CITY           SKY/WX    TMP DP  RH WIND       PRES   REMARKS
Jones Beach      N/A     55 N/A N/A E16         N/A
Matinecock PT    N/A     77 N/A N/A E20         N/A
Farmingdale    CLOUDY    57  53  86 NE7       29.94R
MacArthur/ISP  LGT RAIN  57  54  89 E14       29.92F
Shirley        CLOUDY    56  54  93 E8        29.94R
Mt Sinai Harb    N/A     55 N/A N/A E13G20      N/A
Westhampton    CLOUDY    56  52  86 E14G23    29.96R
East Hampton   DRIZZLE   53  50  92 E12G17    29.96R
Montauk          N/A     53  52  96 NE9       29.98R
$$

NYZ052-065-067-291700-
HUDSON VALLEY

CITY           SKY/WX    TMP DP  RH WIND       PRES   REMARKS
White Plains   LGT RAIN  54  51  90 VRB6      29.96R FOG
Larchmont Harb   N/A     54 N/A N/A NE20        N/A
Croton O-T Hud   N/A     55 N/A N/A NW1         N/A
Newburgh       LGT RAIN  55  55 100 SE8       29.97R FOG
Montgomery     LGT RAIN  57  54  89 S6        29.96R
Poughkeepsie   RAIN      56  53  90 S3        29.96R FOG
Albany         LGT RAIN  56  52  86 SE6       29.95S FOG
$$

NJZ001-105-106-008-010-013-015-019>022-104-291700-
NEW JERSEY

CITY           SKY/WX    TMP DP  RH WIND       PRES   REMARKS
Newark/Liberty LGT RAIN  59  54  83 E8        29.95R
Teterboro      DRIZZLE   57  54  89 NE6       29.95R
Caldwell       LGT RAIN  58  54  86 NE7       29.97R
Somerville     CLOUDY    60  57  89 CALM      29.94R
Linden         CLOUDY    58  54  88 CALM      29.96R
Perth Amboy      N/A     55 N/A N/A E13         N/A
Sussex         CLOUDY    58  55  90 VRB3      29.96R
Andover          N/A     57  54  89 CALM      29.95R
Trenton        CLOUDY    60  58  92 E8        29.93S
Millville      CLOUDY    60  59  96 NE3       29.94R
Atlantic City  CLOUDY    60  32  34 E8        29.93R
Wrightstown    LGT RAIN  58  56  93 NE7       29.93R FOG
Toms River     CLOUDY    58  55  90 E8        29.94R
Belmar         LGT RAIN  56  55  97 NE9       29.95R FOG
$$

PAZ047>061-062-071-291700-
EASTERN PENNSYLVANIA

CITY           SKY/WX    TMP DP  RH WIND       PRES   REMARKS
Philadelphia   CLOUDY    61  58  90 E8        29.94R FOG
Allentown      CLOUDY    60  54  80 E8        29.93S
Scranton       CLOUDY    60  55  83 CALM      29.92R
$$

CTZ002-004>006-009-010-012-RIZ004-006-007-MAZ004-011-015-291700-
SOUTHERN NEW ENGLAND
 IN CT

CITY           SKY/WX    TMP DP  RH WIND       PRES   REMARKS
Bradley INTL   LGT RAIN  58  50  75 SE6       29.99R
Hartford       CLOUDY    58  50  75 SE3       29.98R
Danbury        LGT RAIN  54  52  93 E7        29.96S
Wtrbury/Oxford LGT RAIN  54  46  76 E6        29.99R
Bridgeport     LGT RAIN  57  51  80 E18       29.96R
Meriden        CLOUDY    56  50  80 SE7       29.97S
New Haven      CLOUDY    57  50  77 E14       29.96R
Chester        CLOUDY    55  50  82 E10       29.97S
Groton         CLOUDY    55  51  86 E9        29.97R
Wilimantic     CLOUDY    58  49  72 E8        29.99R

 IN RI

CITY           SKY/WX    TMP DP  RH WIND       PRES   REMARKS
Providence     CLOUDY    53  51  93 NE9       30.00S
Block Island   LGT RAIN  52  50  93 NE13      29.97S
Westerly       LGT RAIN  54  52  93 NE7       29.98R
 IN MA

CITY           SKY/WX    TMP DP  RH WIND       PRES   REMARKS
Boston         LGT RAIN  50  49  96 E15       30.04R VSB 1/2
Worcester      CLOUDY    49  47  93 E8        29.99R
Westfield      NOT AVBL
Provincetown   LGT RAIN  49  47  93 E13       30.04R
Nantucket      RAIN      49  47  93 E15       29.97S FOG
$$

ANZ330-335-338-340-345-350-353-355-291700-
COASTAL MARINE OBSERVATIONS


STATION/POSITION TIME  SKY/WX   TEMP    WIND        PRES    VSBY  WAVE
                                AIR SEA DIR/SP/G                  HT/PER
                 (UTC)          (F)     (DEG/KT/KT) (MB)    (MI)  (FT/S)
NY HARB ENTRANCE 1550            56 57   60/ 14/ 17 1013.4          6/ 8
20 S FIRE ISLAND 1550            55 56   70/ 17/ 19 1012.0          7/ 7
GREAT SOUTH BAY  1500            56 64   80/ 17/ 21   N/A
23 SSW MONTAUK P 1450            53 54              1012.8          6/ 6
15 E BARNEGAT LI 1530               58                N/A           7/ 8
HUDSON CANYON    1550            54 54   70/ 19/ 23 1010.8          8/ 8
KINGS POINT      1542            57 59   60/  5/  7 1014.2
EXECUTION ROCKS  1545            56      70/ 16/ 19   N/A
CENTRAL LI SOUND NOT AVBL
EASTERN LI SOUND NOT AVBL
ROBBINS REEF     1542            57      50/  8/ 12 1014.5
$$


>>>>>>>>>>>>>>>>>>>>>>>>>>>> KEY <<<<<<<<<<<<<<<<<<<<<<<<<<<
>                                                          <
>     SKY/WX - Sky Condition/Present Weather               <
>     TMP    - Temperature in Fahrenheit                   <
>     DP     - Dew Point in Fahrenheit                     <
>     RH     - Relative Humidity in Percent                <
>     WIND   - Direction (from) and Speed in MPH           <
>     PRES   - Mean Sea Level Pressure (inches of Hg)      <
>     WCI    - Wind Chill Index                            <
>     VSB    - VISIBILITY IN MILES                         <
>     HX     - HEAT INDEX                                  <
>     TC     - TEMPERATURE IN CELSIUS                      <
>     VRB    - VARIABLE WIND DIRECTION                     <
>                                                          <
>>>>>>>>>>>>>>>>>>>>>>>>>>>> KEY <<<<<<<<<<<<<<<<<<<<<<<<<<<



USA.gov is the U.S. government's official web portal to all federal, state and local government web resources and services.